Location: Dreilärchen
(47.9312°N, 8.6113°E)
Time: 22:01:13
(UTC+00:00)

USA 306 - Pass Details

Date: 26 May 2022
Orbit: 545 x 556 km, 54.0° (Epoch: 20 June)

Event Time Altitude Azimuth Distance (km) Brightness Sun altitude
Exits shadow 01:42:37 12° 263° (W) 1,691 4.9 -14.2°
Maximum altitude 01:46:19 53° 339° (NNW) 689 3.5 -13.8°
Drops below altitude 10° 01:50:27 10° 58° (ENE) 1,851 6.6 -13.4°
Sets 01:52:45 0° 63° (ENE) 2,750 7.6 -13.2°
